EZY1711 EGKK-EGNV

Flight info

Callsign EZY1711
Flight time 0h 48m
Altitude 28000
Route LAM L10 BPK UN601 LESTA UY250 KEFTE Y250 GASKO
Aircraft A320/M-SDE2E3FGHIJ1RWXYZ/LB1

Departure

Time 2026-05-06 21:53
Airport London Gatwick Airport (EGKK)

Arrival

Time 2026-05-06 22:41
Airport Teesside International Airport (EGNV)
Time Latitude Longitude Altitude Speed Heading
2026-05-06 20:59 51.15861 -0.17938 204 ft 0 kts 78°
2026-05-06 21:00 51.15861 -0.17937 204 ft 0 kts 78°
2026-05-06 21:35 51.15860 -0.17946 204 ft 4 kts 75°
2026-05-06 21:35 51.15849 -0.17985 213 ft 4 kts 59°
2026-05-06 21:35 51.15841 -0.18016 213 ft 3 kts 85°
2026-05-06 21:36 51.15841 -0.18058 211 ft 4 kts 104°
2026-05-06 21:36 51.15851 -0.18082 213 ft 1 kts 167°
2026-05-06 21:36 51.15852 -0.18083 212 ft 0 kts 168°
2026-05-06 21:38 51.15848 -0.18081 212 ft 1 kts 168°
2026-05-06 21:38 51.15805 -0.18066 213 ft 4 kts 167°
2026-05-06 21:39 51.15797 -0.18063 209 ft 1 kts 167°
2026-05-06 21:39 51.15786 -0.18059 207 ft 2 kts 167°
2026-05-06 21:39 51.15770 -0.18054 204 ft 3 kts 167°
2026-05-06 21:39 51.15751 -0.18047 214 ft 3 kts 167°
2026-05-06 21:40 51.15727 -0.18038 207 ft 5 kts 168°
2026-05-06 21:40 51.15688 -0.18059 212 ft 6 kts 238°
2026-05-06 21:40 51.15676 -0.18129 210 ft 7 kts 256°
2026-05-06 21:40 51.15662 -0.18204 210 ft 7 kts 243°
2026-05-06 21:41 51.15620 -0.18232 205 ft 7 kts 176°
2026-05-06 21:41 51.15571 -0.18218 204 ft 7 kts 167°
2026-05-06 21:41 51.15522 -0.18200 209 ft 7 kts 167°
2026-05-06 21:41 51.15472 -0.18182 215 ft 7 kts 167°
2026-05-06 21:42 51.15421 -0.18164 205 ft 8 kts 167°
2026-05-06 21:42 51.15370 -0.18139 207 ft 8 kts 164°
2026-05-06 21:42 51.15304 -0.18115 210 ft 8 kts 167°
2026-05-06 21:42 51.15270 -0.18103 204 ft 5 kts 167°
2026-05-06 21:43 51.15235 -0.18094 204 ft 8 kts 183°
2026-05-06 21:43 51.15195 -0.18220 207 ft 18 kts 258°
2026-05-06 21:43 51.15172 -0.18419 211 ft 19 kts 259°
2026-05-06 21:43 51.15149 -0.18590 204 ft 14 kts 258°
2026-05-06 21:44 51.15128 -0.18742 214 ft 14 kts 258°
2026-05-06 21:44 51.15108 -0.18893 208 ft 14 kts 258°
2026-05-06 21:44 51.15088 -0.19040 213 ft 13 kts 258°
2026-05-06 21:44 51.15069 -0.19182 208 ft 13 kts 258°
2026-05-06 21:45 51.15050 -0.19322 207 ft 13 kts 258°
2026-05-06 21:45 51.15030 -0.19459 205 ft 13 kts 257°
2026-05-06 21:45 51.15011 -0.19597 209 ft 13 kts 257°
2026-05-06 21:45 51.14992 -0.19733 205 ft 13 kts 257°
2026-05-06 21:46 51.14973 -0.19871 204 ft 13 kts 257°
2026-05-06 21:46 51.14952 -0.20019 209 ft 17 kts 257°
2026-05-06 21:46 51.14920 -0.20254 204 ft 25 kts 257°
2026-05-06 21:46 51.14879 -0.20547 206 ft 29 kts 258°
2026-05-06 21:47 51.14835 -0.20881 206 ft 33 kts 258°
2026-05-06 21:47 51.14806 -0.21093 206 ft 9 kts 257°
2026-05-06 21:47 51.14783 -0.21191 209 ft 10 kts 253°
2026-05-06 21:47 51.14770 -0.21291 215 ft 4 kts 259°
2026-05-06 21:48 51.14769 -0.21295 214 ft 1 kts 259°
2026-05-06 21:48 51.14768 -0.21305 211 ft 1 kts 259°
2026-05-06 21:48 51.14766 -0.21322 210 ft 2 kts 259°
2026-05-06 21:48 51.14763 -0.21347 204 ft 3 kts 257°
2026-05-06 21:49 51.14746 -0.21386 210 ft 6 kts 223°
2026-05-06 21:49 51.14718 -0.21402 207 ft 0 kts 186°
2026-05-06 21:49 51.14714 -0.21400 206 ft 0 kts 170°
2026-05-06 21:50 51.14684 -0.21378 211 ft 7 kts 140°
2026-05-06 21:50 51.14663 -0.21345 211 ft 4 kts 146°
2026-05-06 21:50 51.14632 -0.21331 207 ft 5 kts 170°
2026-05-06 21:50 51.14628 -0.21330 206 ft 0 kts 170°
2026-05-06 21:51 51.14622 -0.21328 204 ft 0 kts 170°
2026-05-06 21:51 51.14607 -0.21324 207 ft 7 kts 170°
2026-05-06 21:52 51.14561 -0.21304 206 ft 7 kts 147°
2026-05-06 21:52 51.14523 -0.21234 209 ft 10 kts 116°
2026-05-06 21:52 51.14530 -0.21087 208 ft 25 kts 78°
2026-05-06 21:52 51.14642 -0.20287 215 ft 119 kts 77°
2026-05-06 21:53 51.14855 -0.18701 632 ft 155 kts 79°
2026-05-06 21:53 51.15084 -0.16971 1571 ft 164 kts 76°
2026-05-06 21:53 51.15347 -0.15080 2302 ft 187 kts 76°
2026-05-06 21:53 51.15649 -0.12918 3044 ft 212 kts 76°
2026-05-06 21:54 51.15987 -0.10488 3847 ft 238 kts 76°
2026-05-06 21:54 51.16377 -0.07791 4674 ft 261 kts 73°
2026-05-06 21:54 51.17240 -0.05222 4949 ft 266 kts 52°
2026-05-06 21:54 51.18368 -0.02877 5203 ft 270 kts 51°
2026-05-06 21:55 51.19526 -0.00530 6525 ft 269 kts 51°
2026-05-06 21:55 51.20693 0.01840 7746 ft 274 kts 51°
2026-05-06 21:55 51.21881 0.04268 8948 ft 281 kts 51°
2026-05-06 21:55 51.23092 0.06756 10108 ft 287 kts 51°
2026-05-06 21:56 51.24284 0.09352 11180 ft 294 kts 57°
2026-05-06 21:56 51.24911 0.11335 11906 ft 299 kts 67°
2026-05-06 21:56 51.25463 0.14555 13004 ft 305 kts 78°
2026-05-06 21:56 51.25851 0.17908 14078 ft 309 kts 78°
2026-05-06 21:57 51.26225 0.21107 14979 ft 314 kts 78°
2026-05-06 21:57 51.26631 0.24562 15927 ft 319 kts 78°
2026-05-06 21:57 51.27199 0.28001 16853 ft 324 kts 65°
2026-05-06 21:57 51.28411 0.31034 17772 ft 327 kts 46°
2026-05-06 21:58 51.30200 0.33280 18654 ft 330 kts 26°
2026-05-06 21:58 51.32366 0.34469 19449 ft 331 kts
2026-05-06 21:58 51.34665 0.34447 20298 ft 333 kts 347°
2026-05-06 21:58 51.36864 0.33285 21127 ft 335 kts 336°
2026-05-06 21:59 51.39028 0.31867 21972 ft 338 kts 336°
2026-05-06 21:59 51.41223 0.30430 22802 ft 343 kts 336°
2026-05-06 21:59 51.43443 0.28981 23607 ft 347 kts 336°
2026-05-06 21:59 51.45694 0.27513 24290 ft 351 kts 336°
2026-05-06 22:00 51.47970 0.26026 24971 ft 355 kts 336°
2026-05-06 22:00 51.50268 0.24528 25664 ft 359 kts 336°
2026-05-06 22:00 51.52592 0.23016 26345 ft 362 kts 335°
2026-05-06 22:00 51.54940 0.21487 27036 ft 366 kts 335°
2026-05-06 22:01 51.57312 0.19937 27716 ft 370 kts 335°
2026-05-06 22:01 51.59701 0.18376 27998 ft 372 kts 335°
2026-05-06 22:01 51.62081 0.16739 28051 ft 360 kts 330°
2026-05-06 22:01 51.64152 0.14574 28051 ft 351 kts 318°
2026-05-06 22:02 51.65866 0.11831 28050 ft 346 kts 307°
2026-05-06 22:02 51.67233 0.08657 28049 ft 345 kts 301°
2026-05-06 22:02 51.69828 0.02165 28046 ft 344 kts 301°
2026-05-06 22:03 51.72426 -0.04326 28072 ft 344 kts 301°
2026-05-06 22:03 51.75321 -0.10475 28077 ft 347 kts 315°
2026-05-06 22:04 51.77241 -0.12828 28076 ft 349 kts 327°
2026-05-06 22:04 51.79232 -0.14663 28074 ft 349 kts 328°
2026-05-06 22:04 51.83426 -0.18619 28060 ft 349 kts 327°
2026-05-06 22:05 51.87589 -0.22650 28060 ft 349 kts 327°
2026-05-06 22:05 51.91757 -0.26668 28059 ft 349 kts 327°
2026-05-06 22:06 51.95933 -0.30674 28057 ft 349 kts 327°
2026-05-06 22:06 52.00115 -0.34680 28054 ft 349 kts 327°
2026-05-06 22:07 52.04293 -0.38686 28032 ft 349 kts 327°
2026-05-06 22:07 52.08459 -0.42716 28044 ft 348 kts 327°
2026-05-06 22:08 52.12642 -0.46761 28040 ft 347 kts 327°
2026-05-06 22:08 52.16794 -0.50781 28035 ft 347 kts 327°
2026-05-06 22:09 52.20947 -0.54810 28035 ft 347 kts 327°
2026-05-06 22:09 52.25096 -0.58844 28033 ft 347 kts 327°
2026-05-06 22:10 52.29244 -0.62890 28048 ft 347 kts 328°
2026-05-06 22:10 52.33388 -0.66937 28047 ft 347 kts 328°
2026-05-06 22:11 52.37521 -0.70998 28048 ft 346 kts 328°
2026-05-06 22:11 52.41654 -0.75054 28046 ft 346 kts 328°
2026-05-06 22:12 52.45789 -0.79112 28044 ft 346 kts 328°
2026-05-06 22:12 52.49918 -0.83179 28043 ft 346 kts 328°
2026-05-06 22:13 52.54044 -0.87261 28045 ft 346 kts 328°
2026-05-06 22:13 52.58170 -0.91349 28045 ft 346 kts 328°
2026-05-06 22:14 52.62301 -0.95442 28026 ft 346 kts 328°
2026-05-06 22:14 52.66452 -0.99582 28024 ft 346 kts 328°
2026-05-06 22:15 52.70546 -1.03668 28018 ft 347 kts 328°
2026-05-06 22:15 52.74857 -1.07288 28064 ft 347 kts 342°
2026-05-06 22:16 52.79589 -1.08861 28078 ft 347 kts 349°
2026-05-06 22:16 52.84327 -1.10299 28081 ft 346 kts 349°
2026-05-06 22:17 52.89058 -1.11750 28082 ft 346 kts 349°
2026-05-06 22:17 52.93789 -1.13200 28079 ft 345 kts 349°
2026-05-06 22:18 52.98512 -1.14637 28076 ft 345 kts 349°
2026-05-06 22:18 53.03238 -1.16083 28080 ft 345 kts 349°
2026-05-06 22:19 53.07958 -1.17533 28079 ft 345 kts 349°
2026-05-06 22:19 53.12671 -1.18980 28076 ft 344 kts 349°
2026-05-06 22:20 53.17383 -1.20421 28074 ft 344 kts 349°
2026-05-06 22:20 53.22092 -1.21884 28072 ft 344 kts 349°
2026-05-06 22:21 53.26798 -1.23344 28085 ft 344 kts 348°
2026-05-06 22:21 53.31500 -1.24800 28084 ft 343 kts 348°
2026-05-06 22:22 53.36242 -1.26277 27871 ft 355 kts 348°
2026-05-06 22:22 53.38656 -1.27031 27479 ft 350 kts 348°
2026-05-06 22:22 53.41070 -1.27787 27019 ft 346 kts 348°
2026-05-06 22:23 53.43449 -1.28229 26537 ft 344 kts 354°
2026-05-06 22:23 53.45826 -1.28514 26061 ft 341 kts 354°
2026-05-06 22:23 53.48183 -1.28799 25579 ft 339 kts 354°
2026-05-06 22:23 53.50524 -1.29082 25097 ft 337 kts 354°
2026-05-06 22:24 53.52861 -1.29367 24581 ft 336 kts 354°
2026-05-06 22:24 53.55192 -1.29654 24074 ft 336 kts 354°
2026-05-06 22:24 53.57505 -1.30115 23549 ft 334 kts 346°
2026-05-06 22:24 53.59702 -1.31290 22997 ft 330 kts 334°
2026-05-06 22:25 53.61709 -1.33113 22515 ft 326 kts 327°
2026-05-06 22:25 53.63645 -1.35073 22035 ft 324 kts 327°
2026-05-06 22:25 53.65571 -1.37022 21552 ft 322 kts 327°
2026-05-06 22:25 53.67488 -1.38962 21081 ft 321 kts 327°
2026-05-06 22:26 53.69396 -1.40896 20598 ft 319 kts 327°
2026-05-06 22:26 53.71293 -1.42822 20137 ft 318 kts 327°
2026-05-06 22:26 53.73183 -1.44745 19677 ft 317 kts 327°
2026-05-06 22:26 53.75068 -1.46668 19211 ft 316 kts 327°
2026-05-06 22:27 53.76950 -1.48587 18759 ft 315 kts 327°
2026-05-06 22:27 53.78824 -1.50494 18298 ft 314 kts 326°
2026-05-06 22:27 53.80695 -1.52401 17801 ft 313 kts 327°
2026-05-06 22:27 53.82552 -1.54297 17367 ft 311 kts 326°
2026-05-06 22:28 53.84395 -1.56185 16934 ft 308 kts 327°
2026-05-06 22:28 53.86222 -1.58060 16512 ft 306 kts 326°
2026-05-06 22:28 53.87451 -1.59325 16228 ft 305 kts 326°
2026-05-06 22:28 53.89262 -1.61190 15818 ft 304 kts 326°
2026-05-06 22:29 53.91061 -1.63043 15409 ft 302 kts 326°
2026-05-06 22:29 53.92858 -1.64891 15001 ft 301 kts 327°
2026-05-06 22:29 53.94647 -1.66729 14595 ft 300 kts 327°
2026-05-06 22:29 53.96429 -1.68565 14193 ft 299 kts 327°
2026-05-06 22:30 53.98210 -1.70400 13778 ft 299 kts 327°
2026-05-06 22:30 53.99983 -1.72229 13350 ft 297 kts 327°
2026-05-06 22:30 54.01746 -1.74049 12940 ft 295 kts 327°
2026-05-06 22:30 54.03492 -1.75850 12531 ft 293 kts 327°
2026-05-06 22:31 54.05226 -1.77638 12126 ft 290 kts 327°
2026-05-06 22:31 54.06945 -1.79412 11714 ft 288 kts 327°
2026-05-06 22:31 54.08654 -1.81185 11301 ft 287 kts 327°
2026-05-06 22:31 54.10348 -1.82948 10886 ft 285 kts 327°
2026-05-06 22:32 54.12036 -1.84707 10475 ft 284 kts 327°
2026-05-06 22:32 54.13717 -1.86459 10039 ft 282 kts 327°
2026-05-06 22:32 54.15390 -1.88200 9576 ft 281 kts 327°
2026-05-06 22:32 54.17049 -1.89928 9135 ft 278 kts 327°
2026-05-06 22:33 54.18689 -1.91637 8651 ft 276 kts 327°
2026-05-06 22:33 54.20409 -1.93064 8138 ft 276 kts 343°
2026-05-06 22:33 54.22316 -1.93290 7647 ft 275 kts
2026-05-06 22:33 54.24094 -1.92209 7156 ft 272 kts 30°
2026-05-06 22:34 54.25509 -1.90065 6657 ft 273 kts 46°
2026-05-06 22:34 54.26790 -1.87694 6157 ft 271 kts 46°
2026-05-06 22:34 54.28073 -1.85324 5578 ft 271 kts 45°
2026-05-06 22:34 54.29352 -1.82967 5072 ft 270 kts 46°
2026-05-06 22:35 54.30624 -1.80623 4549 ft 268 kts 46°
2026-05-06 22:35 54.31903 -1.78268 4032 ft 265 kts 47°
2026-05-06 22:35 54.33153 -1.75966 3524 ft 263 kts 48°
2026-05-06 22:35 54.34391 -1.73682 3076 ft 259 kts 49°
2026-05-06 22:36 54.35575 -1.71496 3001 ft 240 kts 49°
2026-05-06 22:36 54.36659 -1.69480 3009 ft 221 kts 49°
2026-05-06 22:36 54.37665 -1.67614 3007 ft 205 kts 49°
2026-05-06 22:36 54.38591 -1.65900 3034 ft 187 kts 50°
2026-05-06 22:37 54.39478 -1.64253 3012 ft 188 kts 50°
2026-05-06 22:37 54.40363 -1.62610 2985 ft 187 kts 50°
2026-05-06 22:37 54.41247 -1.60968 2812 ft 187 kts 50°
2026-05-06 22:37 54.42128 -1.59332 2580 ft 185 kts 50°
2026-05-06 22:38 54.42995 -1.57720 2328 ft 183 kts 50°
2026-05-06 22:38 54.43828 -1.56174 2079 ft 166 kts 50°
2026-05-06 22:38 54.44570 -1.54797 1867 ft 150 kts 51°
2026-05-06 22:38 54.45233 -1.53562 1673 ft 133 kts 52°
2026-05-06 22:39 54.45838 -1.52436 1479 ft 124 kts 51°
2026-05-06 22:39 54.46413 -1.51361 1295 ft 121 kts 51°
2026-05-06 22:39 54.46981 -1.50301 1119 ft 120 kts 50°
2026-05-06 22:39 54.47547 -1.49249 942 ft 119 kts 50°
2026-05-06 22:40 54.48107 -1.48204 773 ft 118 kts 48°
2026-05-06 22:40 54.48653 -1.47150 614 ft 118 kts 48°
2026-05-06 22:40 54.49217 -1.46126 449 ft 118 kts 47°
2026-05-06 22:40 54.49772 -1.45090 293 ft 118 kts 47°
2026-05-06 22:41 54.50797 -1.43157 129 ft 66 kts 48°
2026-05-06 22:41 54.50941 -1.42883 127 ft 19 kts 47°
2026-05-06 22:41 54.51005 -1.42770 121 ft 8 kts 41°
2026-05-06 22:42 54.51044 -1.42771 125 ft 5 kts 329°
2026-05-06 22:42 54.51055 -1.42816 126 ft 4 kts 279°
2026-05-06 22:42 54.51059 -1.42858 126 ft 3 kts 279°
2026-05-06 22:42 54.51062 -1.42900 127 ft 4 kts 274°
2026-05-06 22:43 54.51063 -1.42964 128 ft 6 kts 272°
2026-05-06 22:43 54.51065 -1.43039 126 ft 7 kts 272°
2026-05-06 22:43 54.51068 -1.43121 128 ft 7 kts 277°
2026-05-06 22:43 54.51104 -1.43152 128 ft 6 kts
2026-05-06 22:44 54.51143 -1.43111 126 ft 7 kts 46°
2026-05-06 22:44 54.51169 -1.43040 125 ft 7 kts 59°
2026-05-06 22:44 54.51186 -1.42957 126 ft 8 kts 86°
2026-05-06 22:44 54.51211 -1.42880 126 ft 8 kts 52°
2026-05-06 22:45 54.51245 -1.42806 128 ft 8 kts 55°
2026-05-06 22:45 54.51259 -1.42766 125 ft 0 kts 59°